USGS - science for a changing world

Kansas Water Science Center

Jump to content

Jump back to navigation

Current Streamflow Conditions

Welcome to the U.S. Geological Survey (USGS) Web page for the water resources of Kansas. Here you'll find information on Kansas's rivers and streams. You'll also find information about groundwater, water quality, and many other topics. The USGS operates the most extensive satellite network of stream-gaging stations in the state, many of which form the backbone of flood-warning systems.

The Kansas Water Science Center provides current ("real-time") stream stage in Kansas and streamflow, water-quality, and groundwater levels for over 200 sites.
The USGS provides National ("real-time") stream stage and streamflow, water-quality, and groundwater levels for over 7000 sites.

Of Current Interest

Scientific Investigations Report: Sediment oxygen demand in eastern Kansas streams, 2014 and 2015

Open-File Report: Relations between continuous real-time physical properties and discrete water-quality constituents in the Little Arkansas River, south-central Kansas, 1998-2014

Scientific Investigations Report: Effects of aquifer storage and recovery activities on water quality in the Little Arkansas River and Equus Beds Aquifer, south-central Kansas, 2011-14

Fact Sheet: Effect of May through July 2015 Storm Events on Suspended Sediment Loads, Sediment Trapping Efficiency, and Storage Capacity of John Redmond Reservoir, East-Central Kansas

Scientific Investigations Report: Effect of May through July 2015 Storm Events on Suspended Sediment Loads, Sediment Trapping Efficiency, and Storage Capacity of John Redmond Reservoir, East-Central Kansas

USGS WaterAlert Service Turn Around Don't Drown

Now you can receive instant, customized updates about water conditions by subscribing to WaterAlert, a new service from the U.S. Geological Survey. WaterAlert allows you to receive daily or hourly updates about current conditions in rivers, lakes and groundwater when they match conditions of concern to you.

Kansas Earthquakes - Last 30 days

  1. 2 1km SE of Anthony, Kansas 2016-09-27 18:47:30 CDT
  2. 1.93 15km SE of Anthony, Kansas 2016-09-26 17:55:36 CDT
  3. 3.1 20km NW of Medford, Oklahoma 2016-09-20 13:40:07 CDT
  4. 2.8 21km NW of Medford, Oklahoma 2016-09-20 12:46:36 CDT
  5. 2.9 21km NW of Medford, Oklahoma 2016-09-20 12:46:00 CDT
  6. 2.9 21km NW of Medford, Oklahoma 2016-09-20 12:31:47 CDT
  7. 2.43 4km WSW of Harper, Kansas 2016-09-20 11:01:08 CDT
  8. 3.9 19km NW of Medford, Oklahoma 2016-09-19 23:59:11 CDT
  9. 2.28 4km WSW of Harper, Kansas 2016-09-19 21:54:40 CDT
  10. 2.19 4km WSW of Harper, Kansas 2016-09-19 19:50:56 CDT
  11. 1.79 21km SSW of Conway Springs, Kansas 2016-09-19 06:04:46 CDT
  12. 3.2 8km N of Ellis, Kansas 2016-09-18 22:24:40 CDT
  13. 2 15km ENE of Anthony, Kansas 2016-09-18 15:14:39 CDT
  14. 1.97 6km ENE of Caldwell, Kansas 2016-09-17 22:44:01 CDT
  15. 2.7 1km SE of Anthony, Kansas 2016-09-17 22:37:41 CDT
  16. 1.82 6km N of Caldwell, Kansas 2016-09-17 18:35:18 CDT
  17. 2.9 9km WNW of Belle Plaine, Kansas 2016-09-17 08:18:16 CDT
  18. 2.5 20km NW of Medford, Oklahoma 2016-09-16 21:45:22 CDT
  19. 2.6 7km N of Ellis, Kansas 2016-09-16 00:51:09 CDT
  20. 3.1 7km NNW of Ellis, Kansas 2016-09-15 22:55:18 CDT
  21. 3.2 8km N of Ellis, Kansas 2016-09-15 21:58:27 CDT
  22. 2.06 17km WNW of Caldwell, Kansas 2016-09-15 08:25:13 CDT
  23. 1.71 17km WNW of Caldwell, Kansas 2016-09-15 08:18:27 CDT
  24. 2.5 22km ENE of Lindsborg, Kansas 2016-09-14 22:55:20 CDT
  25. 3.5 7km N of Ellis, Kansas 2016-09-14 07:12:08 CDT
  26. 1.83 10km ESE of Caldwell, Kansas 2016-09-13 14:28:20 CDT
  27. 2.5 22km NW of Medford, Oklahoma 2016-09-13 12:38:13 CDT
  28. 3.2 10km NW of Harper, Kansas 2016-09-13 11:18:00 CDT
  29. 1.83 7km ENE of Caldwell, Kansas 2016-09-12 19:17:36 CDT
  30. 1.77 14km W of Caldwell, Kansas 2016-09-12 16:22:50 CDT
  31. 1.94 9km NNW of Caldwell, Kansas 2016-09-11 22:25:42 CDT
  32. 2.8 7km NNE of Rose Hill, Kansas 2016-09-09 05:49:10 CDT
  33. 2 6km ENE of Caldwell, Kansas 2016-09-08 07:35:34 CDT
  34. 3 21km NW of Medford, Oklahoma 2016-09-07 16:04:25 CDT
  35. 2.7 20km NW of Medford, Oklahoma 2016-09-06 19:13:20 CDT
  36. 2.7 6km ENE of Caldwell, Kansas 2016-09-06 16:39:36 CDT
  37. 2.6 21km NW of Medford, Oklahoma 2016-09-06 14:52:28 CDT
  38. 3.5 21km NW of Medford, Oklahoma 2016-09-06 13:33:49 CDT
  39. 3.7 22km NW of Medford, Oklahoma 2016-09-06 12:49:45 CDT
  40. 3.9 21km NW of Medford, Oklahoma 2016-09-06 12:48:34 CDT
  41. 2.44 17km WNW of Caldwell, Kansas 2016-09-06 07:18:29 CDT
  42. 1.79 17km WNW of Caldwell, Kansas 2016-09-05 17:00:56 CDT
  43. 1.87 7km ESE of Anthony, Kansas 2016-09-04 06:44:30 CDT
  44. 2.6 7km NE of Ellis, Kansas 2016-09-04 04:33:08 CDT
  45. 2.16 22km SSW of Conway Springs, Kansas 2016-09-03 12:43:43 CDT
  46. 2.27 22km SSW of Conway Springs, Kansas 2016-09-03 08:53:33 CDT
  47. 2.7 21km NW of Medford, Oklahoma 2016-09-01 20:40:16 CDT

Highlighted Publications

The Kansas Water Science Center produces publications about water resources.   Search icon Search our publications

There was a problem loading publications. Please try again later.
06871500: Flow=28cfs,Stage=3.93ft,Floodstage=9ft,2016-10-01 14:45,High,BOW C NR STOCKTON, KS 07185000: Flow=12700cfs,Stage=9.41ft,Floodstage=15ft,2016-10-01 14:30,>90,Neosho River near Commerce, OK 07183500: Flow=10300cfs,Stage=14.48ft,Floodstage=21ft,2016-10-01 14:00,>90,NEOSHO R NR PARSONS, KS 07183000: Flow=7670cfs,Stage=9.86ft,Floodstage=15ft,2016-10-01 14:00,>90,NEOSHO R NR IOLA, KS 07182510: Flow=6360cfs,Stage=13.04ft,Floodstage=27ft,2016-10-01 14:15,>90,NEOSHO R AT BURLINGTON, KS 07182250: Flow=1240cfs,Stage=7.52ft,Floodstage=32ft,2016-10-01 15:00,>90,COTTONWOOD R NR PLYMOUTH, KS 07180500: Flow=68cfs,Stage=4.79ft,2016-10-01 14:15,>90,CEDAR C NR CEDAR POINT, KS 07180400: Flow=637cfs,2016-10-01 14:45,Stage=4.63ft,2016-10-01 15:00:00,Floodstage=22ft,>90,COTTONWOOD R NR FLORENCE, KS 07179795: Flow=540cfs,Stage=7.16ft,2016-10-01 14:30,>90,N COTTONWOOD R BL MARION LK, KS 07179500: Flow=583cfs,Stage=10.08ft,2016-10-01 15:00,>90,NEOSHO R AT COUNCIL GROVE, KS 07172000: Flow=200cfs,Stage=2.23ft,2016-10-01 15:00,>90,CANEY R NR ELGIN, KS 07169800: Flow=167cfs,Stage=3.68ft,2016-10-01 15:00,>90,ELK R AT ELK FALLS, KS 07147800: Flow=2660cfs,Stage=5.41ft,Floodstage=18ft,2016-10-01 15:00,>90,WALNUT R AT WINFIELD, KS 07147070: Flow=202cfs,Stage=2.78ft,2016-10-01 14:30,>90,WHITEWATER R AT TOWANDA, KS 07145700: Flow=35cfs,Stage=4.44ft,Floodstage=19ft,2016-10-01 15:00,>90,SLATE C AT WELLINGTON, KS 07145200: Flow=242cfs,Stage=4.01ft,Floodstage=8ft,2016-10-01 15:00,>90,SF NINNESCAH R NR MURDOCK, KS 06913500: Flow=1260cfs,Stage=8.37ft,Floodstage=31ft,2016-10-01 14:30,>90,MARAIS DES CYGNES R NR OTTAWA, KS 06913000: Flow=1140cfs,Stage=5.57ft,Floodstage=20ft,2016-10-01 14:30,>90,MARAIS DES CYGNES R NR POMONA, KS 06911900: Flow=39cfs,Stage=8.21ft,Floodstage=19ft,2016-10-01 14:00,>90,DRAGOON C NR BURLINGAME, KS 06911000: Flow=1000cfs,Stage=7.25ft,2016-10-01 14:45,>90,MARAIS DES CYGNES R AT MELVERN, KS 06910800: Flow=74cfs,Stage=2.87ft,Floodstage=19ft,2016-10-01 14:45,>90,MARAIS DES CYGNES R NR READING, KS 06892350: Flow=12700cfs,Stage=9.02ft,Floodstage=26ft,2016-10-01 14:45,>90,KANSAS R AT DESOTO, KS 06891000: Flow=11900cfs,Stage=6.48ft,Floodstage=17ft,2016-10-01 14:30,>90,KANSAS R AT LECOMPTON, KS 06890900: Flow=5000cfs,Stage=32.50ft,2016-10-01 14:45,>90,DELAWARE R AT PERRY, KS 06889200: Flow=110cfs,Stage=7.80ft,Floodstage=26ft,2016-10-01 14:30,>90,SOLDIER C NR DELIA, KS 06888500: Flow=118cfs,Stage=3.27ft,Floodstage=21ft,2016-10-01 14:45,>90,MILL C NR PAXICO, KS 06878000: Flow=48cfs,Stage=4.73ft,Floodstage=19ft,2016-10-01 14:45,>90,CHAPMAN C NR CHAPMAN, KS 06876700: Flow=58cfs,Stage=5.13ft,Floodstage=18ft,2016-10-01 14:45,>90,SALT C NR ADA, KS 06875900: Flow=305cfs,Stage=9.19ft,Floodstage=21ft,2016-10-01 14:30,>90,SOLOMON R NR GLEN ELDER, KS 06873000: Flow=68cfs,Stage=2.21ft,Floodstage=8.5ft,2016-10-01 14:15,>90,SF SOLOMON R AB WEBSTER RE, KS 06871000: Flow=63cfs,Stage=4.03ft,Floodstage=11ft,2016-10-01 14:30,>90,NF SOLOMON R AT GLADE, KS 06869500: Flow=687cfs,Stage=12.77ft,Floodstage=25ft,2016-10-01 14:30,>90,SALINE R AT TESCOTT, KS 06868200: Flow=492cfs,Stage=8.87ft,2016-10-01 14:45,>90,SALINE R AT WILSON DAM, KS 06867000: Flow=145cfs,Stage=6.94ft,Floodstage=18ft,2016-10-01 14:30,>90,SALINE R NR RUSSELL, KS 06847900: Flow=7.4cfs,Stage=3.72ft,Floodstage=11ft,2016-10-01 14:45,>90,PRAIRIE DOG C AB KEITH SEBELIUS LAKE, KS 06824000: Flow=5.0cfs,Stage=0.45ft,2016-10-01 13:45,<10,Rock Creek at Parks, Nebr. 06823500: Flow=0.49cfs,Stage=0.86ft,Floodstage=11ft,2016-10-01 13:45,<10,Buffalo Creek near Haigler, Nebr. 07179730: Flow=644cfs,Stage=6.05ft,Floodstage=26ft,2016-10-01 14:15,76-90,NEOSHO R NR AMERICUS, KS 07170500: Flow=4560cfs,Stage=10.70ft,Floodstage=30ft,2016-10-01 15:00,76-90,VERDIGRIS R AT INDEPENDENCE, KS 07169500: Flow=1240cfs,Stage=6.46ft,Floodstage=17ft,2016-10-01 15:00,76-90,FALL R AT FREDONIA, KS 07167500: Flow=36cfs,Stage=2.66ft,2016-10-01 14:15,76-90,OTTER C AT CLIMAX, KS 07166500: Flow=986cfs,Stage=5.22ft,Floodstage=19ft,2016-10-01 14:45,76-90,VERDIGRIS R NR ALTOONA, KS 07151500: Flow=206cfs,Stage=2.62ft,Floodstage=10ft,2016-10-01 15:00,76-90,CHIKASKIA R NR CORBIN, KS 07144550: Flow=944cfs,Stage=2.11ft,Floodstage=12ft,2016-10-01 15:00,76-90,ARKANSAS R AT DERBY, KS 07144200: Flow=212cfs,Stage=2.18ft,2016-10-01 14:00,76-90,L ARKANSAS R AT VALLEY CENTER, KS 07143665: Flow=53cfs,Stage=1.13ft,Floodstage=22ft,2016-10-01 14:15,76-90,L ARKANSAS R AT ALTA MILLS, KS 07137000: Flow=24cfs,Stage=11.01ft,2016-10-01 14:45,76-90,FRONTIER DITCH NR COOLIDGE, KS 06917000: Flow=60cfs,Stage=3.80ft,Floodstage=22ft,2016-10-01 14:15,76-90,L OSAGE R AT FULTON, KS 06916600: Flow=2070cfs,Stage=7.98ft,Floodstage=27ft,2016-10-01 14:45,76-90,MARAIS DES CYGNES R NR KS-MO ST LINE, KS 06915800: Flow=1880cfs,Stage=7.78ft,Floodstage=25ft,2016-10-01 14:15,76-90,MARAIS DES CYGNES R AT LA CYGNE, KS 06912500: Flow=140cfs,Stage=3.61ft,2016-10-01 14:45,76-90,HUNDRED AND TEN MILE C NR QUENEMO, KS 06893500: Flow=66cfs,Stage=4.31ft,Floodstage=34ft,2016-10-01 14:45,76-90,Blue River at Kansas City, MO 06893080: Flow=13cfs,Stage=4.15ft,Floodstage=16ft,2016-10-01 14:45,76-90,BLUE R NR STANLEY, KS 06893000: Flow=63400cfs,Stage=13.60ft,Floodstage=32ft,2016-10-01 14:30,76-90,Missouri River at Kansas City, MO 06892000: Flow=78cfs,Stage=3.14ft,Floodstage=23ft,2016-10-01 14:30,76-90,STRANGER C NR TONGANOXIE, KS 06890100: Flow=167cfs,Stage=3.39ft,Floodstage=27ft,2016-10-01 14:45,76-90,DELAWARE R NR MUSCOTAH, KS 06889500: Flow=152cfs,Stage=1.21ft,Floodstage=29ft,2016-10-01 15:00,76-90,SOLDIER C NR TOPEKA, KS 06889000: Flow=6230cfs,Stage=8.07ft,Floodstage=26ft,2016-10-01 14:30,76-90,KANSAS R AT TOPEKA, KS 06888350: Flow=5250cfs,Stage=8.25ft,Floodstage=20ft,2016-10-01 14:30,76-90,KANSAS R NR BELVUE, KS 06888000: Flow=63cfs,Stage=4.40ft,2016-10-01 14:45,76-90,VERMILLION C NR WAMEGO, KS 06885500: Flow=61cfs,Stage=3.65ft,Floodstage=19ft,2016-10-01 14:30,76-90,BLACK VERMILLION R NR FRANKFORT, KS 06879100: Flow=3630cfs,Stage=8.02ft,Floodstage=21ft,2016-10-01 14:30,76-90,KANSAS R AT FORT RILEY, KS 06877600: Flow=1900cfs,Stage=10.19ft,Floodstage=26ft,2016-10-01 14:45,76-90,SMOKY HILL R AT ENTERPRISE, KS 06876900: Flow=676cfs,Stage=7.25ft,Floodstage=24ft,2016-10-01 14:30,76-90,SOLOMON R AT NILES, KS 06876000: Flow=331cfs,Stage=4.85ft,2016-10-01 12:45,76-90,SOLOMON R AT BELOIT, KS 06874000: Flow=62cfs,Stage=4.50ft,Floodstage=14ft,2016-10-01 14:30,76-90,SF SOLOMON R AT OSBORNE, KS 06873460: Flow=13cfs,Stage=4.94ft,Floodstage=12ft,2016-10-01 14:30,76-90,SF SOLOMON R AT WOODSTON, KS 06853800: Flow=7.8cfs,Stage=1.72ft,Floodstage=16ft,2016-10-01 14:45,76-90,WHITE ROCK C NR BURR OAK, KS 06815000: Flow=286cfs,Stage=4.88ft,Floodstage=27ft,2016-10-01 14:45,76-90,Big Nemaha River at Falls City, Nebr. 07144910: Flow=3.2cfs,Stage=2.42ft,Floodstage=9ft,2016-10-01 15:00,10-24,SF NINNESCAH R NR PRATT, KS 07142300: Flow=0.00cfs,Stage=2.36ft,Floodstage=9ft,2016-10-01 14:00,10-24,RATTLESNAKE C NR MACKSVILLE, KS 06884400: Flow=117cfs,Stage=3.80ft,Floodstage=21ft,2016-10-01 14:30,10-24,L BLUE R NR BARNES, KS 06854500: Flow=102cfs,Stage=0.78ft,Floodstage=10ft,2016-10-01 14:15,10-24,REPUBLICAN R AT SCANDIA, KS 06821500: Flow=1.5cfs,Stage=5.98ft,Floodstage=12ft,2016-10-01 13:30,10-24,Arikaree River at Haigler, Nebr. 07188000: Flow=310cfs,Stage=5.36ft,Floodstage=20ft,2016-10-01 14:00,25-75,Spring River near Quapaw, OK 07186000: Flow=100cfs,Stage=1.30ft,Floodstage=19ft,2016-10-01 14:30,25-75,Spring River near Waco, MO 07184000: Flow=2.0cfs,Stage=0.99ft,Floodstage=12ft,2016-10-01 14:45,25-75,LIGHTNING C NR MCCUNE, KS 07157500: Flow=3.5cfs,Stage=2.36ft,Floodstage=6.5ft,2016-10-01 14:30,25-75,CROOKED C NR ENGLEWOOD, KS 07149000: Flow=48cfs,Stage=0.55ft,Floodstage=10ft,2016-10-01 14:30,25-75,MEDICINE LODGE R NR KIOWA, KS 07146500: Flow=904cfs,Stage=4.00ft,Floodstage=11ft,2016-10-01 14:15,25-75,ARKANSAS R AT ARKANSAS CITY, KS 07145500: Flow=184cfs,Stage=3.17ft,Floodstage=17ft,2016-10-01 10:00,25-75,NINNESCAH R NR PECK, KS 07144780: Flow=49cfs,Stage=6.12ft,2016-10-01 14:30,25-75,NF NINNESCAH R AB CHENEY RE, KS 07144300: Flow=670cfs,Stage=4.23ft,2016-10-01 14:45,25-75,ARKANSAS R AT WICHITA, KS 07143330: Flow=264cfs,Stage=2.62ft,Floodstage=10ft,2016-10-01 14:30,25-75,ARKANSAS R NR HUTCHINSON, KS 07143300: Flow=6.9cfs,Stage=4.26ft,Floodstage=18ft,2016-10-01 14:30,25-75,COW C NR LYONS, KS 07142575: Flow=3.7cfs,Stage=11.43ft,Floodstage=17ft,2016-10-01 14:30,25-75,RATTLESNAKE C NR ZENITH, KS 07141780: Flow=1.4cfs,Stage=6.00ft,Floodstage=29ft,2016-10-01 14:15,25-75,WALNUT C AT NEKOMA, KS 07141300: Flow=23cfs,Stage=1.24ft,Floodstage=12ft,2016-10-01 14:30,25-75,ARKANSAS R AT GREAT BEND, KS 07138000: Flow=122cfs,Stage=4.42ft,Floodstage=10ft,2016-10-01 14:15,25-75,ARKANSAS R AT SYRACUSE, KS 07137500: Flow=131cfs,Stage=3.10ft,Floodstage=8ft,2016-10-01 14:15,25-75,ARKANSAS R NR COOLIDGE, KS 06917500: Flow=38cfs,Stage=7.75ft,Floodstage=38ft,2016-10-01 14:30,25-75,MARMATON R NR FORT SCOTT, KS 06915000: Flow=7.1cfs,Stage=1.99ft,2016-10-01 14:30,25-75,BIG BULL C NR HILLSDALE, KS 06893300: Flow=17cfs,Stage=5.71ft,Floodstage=14ft,2016-10-01 14:15,25-75,INDIAN C AT OVERLAND PARK, KS 06891500: Flow=13cfs,Stage=4.24ft,Floodstage=23ft,2016-10-01 14:45,25-75,WAKARUSA R NR LAWRENCE, KS 06887000: Flow=975cfs,Stage=2.54ft,Floodstage=19ft,2016-10-01 14:00,25-75,BIG BLUE R NR MANHATTAN, KS 06884200: Flow=17cfs,Stage=1.82ft,Floodstage=18ft,2016-10-01 14:45,25-75,MILL C AT WASHINGTON, KS 06884025: Flow=92cfs,Stage=1.80ft,Floodstage=19ft,2016-10-01 15:00,25-75,Little Blue River at Hollenberg, KS 06882510: Flow=327cfs,Stage=12.18ft,Floodstage=35ft,2016-10-01 14:30,25-75,BIG BLUE R AT MARYSVILLE, KS 06882000: Flow=297cfs,Stage=4.03ft,Floodstage=20ft,2016-10-01 14:00,25-75,Big Blue River at Barneston, Nebr. 06872500: Flow=35cfs,Stage=3.92ft,Floodstage=15ft,2016-10-01 14:30,25-75,NF SOLOMON R AT PORTIS, KS 06866900: Flow=1.2cfs,Stage=2.32ft,Floodstage=13ft,2016-10-01 14:00,25-75,SALINE R NR WAKEENEY, KS 06866500: Flow=232cfs,Stage=5.04ft,Floodstage=20ft,2016-10-01 14:45,25-75,SMOKY HILL R NR MENTOR, KS 06866000: Flow=210cfs,Stage=7.62ft,Floodstage=21ft,2016-10-01 14:30,25-75,SMOKY HILL R AT LINDSBORG, KS 06865500: Flow=151cfs,Stage=3.99ft,2016-10-01 14:30,25-75,SMOKY HILL R NR LANGLEY, KS 06864500: Flow=74cfs,Stage=1.83ft,Floodstage=20ft,2016-10-01 14:30,25-75,SMOKY HILL R AT ELLSWORTH, KS 06864000: Flow=22cfs,Stage=3.57ft,Floodstage=18ft,2016-10-01 14:30,25-75,SMOKY HILL R NR RUSSELL, KS 06863500: Flow=2.9cfs,Stage=4.98ft,Floodstage=26ft,2016-10-01 14:30,25-75,BIG C NR HAYS, KS 06862700: Flow=0.29cfs,Stage=3.29ft,2016-10-01 14:30,25-75,SMOKY HILL R NR SCHOENCHEN, KS 06861000: Flow=0.49cfs,Stage=0.47ft,Floodstage=7ft,2016-10-01 14:30,25-75,SMOKY HILL R NR ARNOLD, KS 06857100: Flow=867cfs,Stage=6.67ft,2016-10-01 14:30,25-75,REPUBLICAN R AT JUNCTION CITY, KS 06856600: Flow=277cfs,Stage=7.04ft,Floodstage=15ft,2016-10-01 14:30,25-75,REPUBLICAN R AT CLAY CENTER, KS 06856000: Flow=165cfs,Stage=4.97ft,Floodstage=15ft,2016-10-01 14:30,25-75,REPUBLICAN R AT CONCORDIA, KS 06853500: Flow=83cfs,Stage=1.88ft,Floodstage=11ft,2016-10-01 14:30,25-75,REPUBLICAN R NR HARDY, NE 06852500: Flow=3.2cfs,Stage=0.17ft,2016-10-01 14:15,25-75,Courtland Canal at Nebraska-Kansas Stateline 06818000: Flow=49000cfs,Stage=9.37ft,Floodstage=17ft,2016-10-01 14:30,25-75,Missouri River at St. Joseph, MO 06814000: Flow=14cfs,Stage=1.25ft,Floodstage=21ft,2016-10-01 14:45,25-75,TURKEY C NR SENECA, KS 06813500: Flow=43200cfs,Stage=9.78ft,Floodstage=17ft,2016-10-01 14:30,25-75,Missouri River at Rulo, NE 385520094420000: Flow=15cfs,2013-07-17 23:45,Not ranked,INDIAN C AT COLLEGE BLVD, JOHNSON CO, KS 375350097262800: Stage=5.83ft,2016-10-01 14:00,Not ranked,L ARKANSAS R UPSTREAM OF ASR FAC NR SEDGWICK, KS 07187600: Flow=327cfs,Stage=3.01ft,Floodstage=14ft,2016-10-01 14:30,Not ranked,SPRING R NR BAXTER SPRINGS, KS 07186055: Flow=23cfs,Stage=5.55ft,2016-10-01 13:45,Not ranked,COW C NR SCAMMON, KS 07185090: Flow=3.5cfs,Stage=8.36ft,2016-10-01 14:15,Not ranked,Tar Creek near Commerce, OK 07184500: Flow=11cfs,Stage=5.76ft,2016-10-01 14:00,Not ranked,LABETTE C NR OSWEGO, KS 07183300: Stage=18.53ft,Floodstage=29ft,2016-10-01 14:15,Not ranked,NEOSHO R NR ERIE, KS 07182395: Stage=6.31ft,2016-10-01 15:00,Not ranked,NEOSHO R AT HARTFORD, KS 07182390: Flow=2190cfs,Stage=7.62ft,Floodstage=22ft,2016-10-01 14:30,Not ranked,NEOSHO R AT NEOSHO RAPIDS, KS 07182260: Flow=1420cfs,Stage=5.34ft,Floodstage=20ft,2016-10-01 14:30,Not ranked,COTTONWOOD R AT EMPORIA, KS 07182200: Flow=164cfs,Stage=7.94ft,2016-10-01 14:30,Not ranked,SF COTTONWOOD R NR BAZAAR, KS 07180200: Stage=6.72ft,2016-10-01 14:30,Not ranked,COTTONWOOD R AT MARION, KS 07179785: Stage=9.95ft,2016-10-01 14:30,Not ranked,NF COTTONWOOD R NR DURHAM, KS 07179750: Flow=668cfs,Stage=5.58ft,2016-10-01 14:30,Not ranked,NEOSHO R AT BURLINGAME RD NR EMPORIA, KS 07179710: Stage=14.23ft,2016-10-01 14:00,Not ranked,NEOSHO R NR DUNLAP, KS 07179700: Flow=41cfs,Stage=9.81ft,2016-10-01 14:15,Not ranked,ROCK C NR DUNLAP, KS 07179300: Flow=5.2cfs,Stage=7.99ft,2016-10-01 14:45,Not ranked,NEOSHO R NR PARKERVILLE, KS 07170990: Flow=6390cfs,Stage=9.70ft,2016-10-01 14:45,Not ranked,VERDIGRIS R AT COFFEYVILLE, KS 07170700: Stage=2.85ft,2016-10-01 14:00,Not ranked,BIG HILL C NR CHERRYVALE, KS 07165750: Flow=200cfs,Stage=8.12ft,2016-10-01 15:00,Not ranked,VERDIGRIS R NR VIRGIL, KS 07157940: Flow=2.2cfs,Stage=5.32ft,2016-10-01 15:00,Not ranked,BLUFF C NR BUTTERMILK, KS 07157740: Flow=1.3cfs,Stage=6.99ft,2016-10-01 14:30,Not ranked,CIMARRON R NR BUTTERMILK, KS 07156900: Flow=14cfs,Stage=2.03ft,Floodstage=5ft,2016-09-30 13:00,Not ranked,Cimarron River near Forgan, OK 07148111: Flow=193cfs,Stage=5.22ft,2016-10-01 14:30,Not ranked,GROUSE C NR SILVERDALE, KS 07147900: Stage=6.05ft,Floodstage=18ft,2016-10-01 14:15,Not ranked,WALNUT R AT ARKANSAS CITY, KS 07146800: Flow=29cfs,Stage=6.09ft,Floodstage=21ft,2016-10-01 14:00,Not ranked,WB WALNUT R NR EL DORADO, KS 07145600: Flow=1630cfs,Stage=9.12ft,Floodstage=17ft,2016-10-01 14:45,Not ranked,ARKANSAS R ON HWY 160 AT OXFORD, KS 07144795: Flow=0.43cfs,Stage=1.23ft,2015-11-12 10:00,Not ranked,NF NINNESCAH R AT CHENEY DAM, KS 07144790: Stage=1422.19ft,2016-10-01 14:00,Not ranked,CHENEY RE NR CHENEY, KS 07144570: Flow=1260cfs,Stage=7.32ft,Floodstage=16.5ft,2016-10-01 14:15,Not ranked,ARKANSAS R AT MULVANE, KS 07144490: Flow=17cfs,Stage=7.64ft,2016-10-01 14:15,Not ranked,COWSKIN C AT KELLOGG ST, WICHITA, KS 07144486: Flow=1.2cfs,Stage=4.96ft,2016-10-01 15:00,Not ranked,CALFSKIN C AT 119TH ST, WICHITA, KS 07144480: Flow=12cfs,Stage=7.81ft,Floodstage=18ft,2016-10-01 14:30,Not ranked,COWSKIN C AT 119TH ST AT WICHITA, KS 07144470: Stage=10.96ft,2016-10-01 14:15,Not ranked,COWSKIN C AT 29TH ST NORTH OF WICHITA, KS 07144301: Flow=0.00cfs,Stage=6.48ft,2016-10-01 14:45,Not ranked,FLOODWAY AT ARKANSAS R AT WICHITA, KS 07144201: Flow=32cfs,2016-09-28 00:15,Not ranked,FLOODWAY AT L ARKANSAS R AT VALLEY CENTER, KS 07144100: Flow=153cfs,Stage=3.87ft,Floodstage=22ft,2016-10-01 14:15,Not ranked,L ARKANSAS R NR SEDGWICK, KS 07144050: Flow=15cfs,Stage=-0.52ft,Floodstage=19ft,2016-10-01 14:15,Not ranked,EMMA C AT SEDGWICK, KS 07143672: Flow=59cfs,Stage=6.41ft,Floodstage=25ft,2016-10-01 14:30,Not ranked,L ARKANSAS R AT HWY 50 NR HALSTEAD, KS 07143375: Flow=406cfs,Stage=5.37ft,2016-10-01 14:15,Not ranked,ARKANSAS R NR MAIZE, KS 07143310: Stage=1.93ft,Floodstage=9.5ft,2016-10-01 14:15,Not ranked,COW C NR HUTCHINSON, KS 07142680: Flow=128cfs,Stage=8.93ft,2016-10-01 14:00,Not ranked,ARKANSAS R NR NICKERSON, KS 07142019: Flow=14cfs,Stage=2.30ft,2016-10-01 15:00,Not ranked,CHEYENNE BOTTOMS DV NR GREAT BEND, KS 07141900: Flow=0.00cfs,Stage=2.18ft,Floodstage=24ft,2016-10-01 14:45,Not ranked,WALNUT C AT ALBERT, KS 07141220: Flow=4.3cfs,Stage=4.08ft,2016-10-01 15:00,Not ranked,ARKANSAS R NR LARNED, KS 07141200: Flow=0.00cfs,Stage=6.08ft,Floodstage=31ft,2016-10-01 14:30,Not ranked,PAWNEE R AT ROZEL, KS 07141000: Flow=0.00cfs,Stage=3.61ft,2016-10-01 14:45,Not ranked,BUCKNER C AT HANSTON, KS 07140900: Flow=2.2cfs,Stage=2.62ft,2016-10-01 14:15,Not ranked,BUCKNER C NR JETMORE, KS 07140890: Flow=2.7cfs,Stage=3.10ft,2016-10-01 14:45,Not ranked,BUCKNER C BL HORSETHIEF RE NR JETMORE, KS 07140880: Flow=1.7cfs,Stage=3.94ft,2016-10-01 14:15,Not ranked,BUCKNER C AB HORSETHIEF RE NR JETMORE, KS 07140850: Flow=0.00cfs,Stage=2.26ft,Floodstage=30ft,2016-10-01 14:00,Not ranked,PAWNEE R NR BURDETT, KS 07139500: Stage=5.99ft,Floodstage=11ft,2016-10-01 14:00,Not ranked,ARKANSAS R AT DODGE CITY, KS 07139000: Flow=0.00cfs,Stage=5.23ft,Floodstage=10ft,2016-10-01 14:30,Not ranked,ARKANSAS R AT GARDEN CITY, KS 07138075: Flow=5.0cfs,2016-09-06 19:30,Stage=1.57ft,2016-10-01 14:00:00,Not ranked,FARMERS DITCH NR DEERFIELD, KS 07138070: Flow=26cfs,Stage=6.62ft,Floodstage=14ft,2016-10-01 14:45,Not ranked,ARKANSAS R AT DEERFIELD, KS 07138064: Flow=10cfs,Stage=5.74ft,2016-10-01 14:15,Not ranked,SOUTHSIDE DITCH RETURN NR DEERFIELD, KS 07138063: Flow=19cfs,Stage=2.64ft,2016-10-01 14:00,Not ranked,SOUTHSIDE DITCH NR LAKIN, KS 07138050: Stage=2.49ft,2016-10-01 14:00:00,Not ranked,Equipment malfunction,AMAZON GREAT EASTERN DITCH NR LAKIN, KS 07138020: Flow=105cfs,Stage=6.11ft,2016-10-01 14:45,Not ranked,ARKANSAS R AT KENDALL, KS 07137010: Flow=24cfs,Stage=2.84ft,2016-10-01 14:45,Not ranked,FRONTIER DITCH RETURN NR COOLIDGE, KS 07134990: Flow=25cfs,Stage=3.45ft,2016-10-01 13:15,Not ranked,WILD HORSE CREEK ABOVE HOLLY, CO 06917630: Flow=0.00cfs,Stage=1.35ft,2016-10-01 14:15,Not ranked,East Drywood Creek at Prairie State Park 06917560: Flow=34cfs,Stage=2.53ft,Floodstage=25ft,2016-10-01 14:15,Not ranked,Marmaton River near Richards, MO 06917380: Flow=194cfs,2008-11-12 23:45,Not ranked,MARMATON R NR MARMATON, KS 06917240: Flow=18cfs,Stage=0.23ft,2016-10-01 15:00,Not ranked,MARMATON R NR UNIONTOWN, KS 06914995: Stage=917.48ft,2016-10-01 14:30,Not ranked,HILLSDALE LK NR HILLSDALE, KS 06914990: Flow=4.1cfs,Stage=2.89ft,2016-10-01 14:30,Not ranked,L BULL C NR SPRING HILL, KS 06914950: Flow=3.8cfs,Stage=2.10ft,2016-10-01 15:00,Not ranked,BIG BULL C NR EDGERTON, KS 06914500: Flow=183cfs,Stage=6.21ft,Floodstage=23ft,2016-10-01 14:30,Not ranked,POTTAWATOMIE C AT LANE, KS 06914100: Flow=103cfs,Stage=4.33ft,Floodstage=23ft,2016-10-01 14:45,Not ranked,POTTAWATOMIE C NR SCIPIO, KS 06912490: Stage=976.43ft,2016-10-01 14:45,Not ranked,POMONA LK NR QUENEMO, KS 06911490: Flow=8.5cfs,Stage=0.70ft,Floodstage=10ft,2016-10-01 14:30,Not ranked,SALT C AT LYNDON, KS 06910997: Stage=1038.70ft,2016-10-01 14:30,Not ranked,MELVERN LK NR MELVERN, KS 06893562: Stage=4.48ft,2016-10-01 14:45,Not ranked,Brush Creek at Rockhill Road in Kansas City, MO 06893557: Flow=0.52cfs,Stage=35.50ft,Floodstage=47ft,2016-10-01 14:15,Not ranked,Brush Creek at Ward Parkway in Kansas City, MO 06893400: Stage=83.02ft,2016-10-01 14:30,Not ranked,Indian Creek at 103rd St in Kansas City, MO 06893390: Flow=21cfs,Stage=10.20ft,Floodstage=20ft,2016-10-01 14:30,Not ranked,INDIAN C AT STATE LINE RD, LEAWOOD, KS 06893350: Flow=9.3cfs,Stage=2.05ft,2016-10-01 14:15,Not ranked,TOMAHAWK C NR OVERLAND PARK, KS 06893150: Flow=13cfs,Stage=24.78ft,Floodstage=35ft,2016-10-01 14:00,Not ranked,Blue River at Blue Ridge Blvd Ext in KC, MO 06893100: Flow=11cfs,Stage=5.19ft,2016-10-01 14:30,Not ranked,BLUE R AT KENNETH RD, OVERLAND PARK, KS 06892950: Stage=15.06ft,Floodstage=33ft,2016-10-01 14:45,Not ranked,KANSAS R AT KANSAS CITY, KS 06892518: Flow=11700cfs,Stage=12.04ft,2016-10-01 14:45,Not ranked,KANSAS R NR LAKE QUIVIRA, KS 06892513: Flow=16cfs,Stage=48.72ft,2016-10-01 14:30,Not ranked,MILL C AT JOHNSON DRIVE, SHAWNEE, KS 06892495: Flow=17cfs,Stage=57.38ft,2016-10-01 14:45,Not ranked,CEDAR C NR DESOTO, KS 06892494: Stage=3.26ft,2016-10-01 15:00,Not ranked,CAMP C AT 95TH ST NR DESOTO, KS 06892493: Stage=76.81ft,2016-10-01 15:00,Not ranked,CEDAR C AT 95TH ST NR DESOTO, KS 06892360: Flow=11cfs,Stage=5.03ft,2016-10-01 14:30,Not ranked,KILL C AT 95TH ST NR DESOTO, KS 06891850: Flow=62cfs,Stage=2.79ft,Floodstage=17ft,2016-10-01 14:30,Not ranked,STRANGER C AT EASTON, KS 06891810: Flow=199cfs,2015-06-09 23:45,Not ranked,STRANGER C NR POTTER, KS 06891478: Stage=877.24ft,2016-10-01 14:00,Not ranked,CLINTON LK NR LAWRENCE, KS 06891260: Flow=32cfs,Stage=4.21ft,2016-10-01 14:30,Not ranked,WAKARUSA R NR RICHLAND, KS 06891200: Stage=3.42ft,Floodstage=15ft,2016-10-01 14:15,Not ranked,WAKARUSA R AT WAKARUSA, KS 06891080: Flow=12400cfs,2016-10-01 14:45,Stage=13.65ft,2016-10-01 14:50:00,Floodstage=18ft,Not ranked,KANSAS R AT LAWRENCE, KS 06890898: Stage=898.01ft,2016-10-01 14:30,Not ranked,PERRY LK NR PERRY, KS 06889630: Flow=14cfs,Stage=4.79ft,Floodstage=24ft,2016-10-01 14:15,Not ranked,SHUNGANUNGA C AT TOPEKA, KS 06889585: Stage=5.11ft,Floodstage=15ft,2016-10-01 14:15,Not ranked,SHUNGANUNGA C AT GAGE BLVD, TOPEKA, KS 06888990: Flow=5620cfs,Stage=7.32ft,2016-10-01 14:45,Not ranked,KANSAS R AT TOPEKA WATER PLANT, KS 06888700: Stage=7.55ft,Floodstage=25ft,2016-10-01 14:30,Not ranked,CROSS C AT ROSSVILLE, KS 06887500: Flow=5020cfs,Stage=6.01ft,Floodstage=19ft,2016-10-01 14:30,Not ranked,KANSAS R AT WAMEGO, KS 06886900: Stage=1079.70ft,2016-10-01 14:00,Not ranked,TUTTLE C LK NR MANHATTAN, KS 06884700: Stage=15.63ft,Floodstage=26ft,2016-10-01 14:15,Not ranked,BIG BLUE R AT BLUE RAPIDS, KS 06879820: Stage=8.05ft,Floodstage=18ft,2016-10-01 15:00,Not ranked,KANSAS R AT MANHATTAN, KS 06879815: Stage=2.54ft,2016-10-01 15:00,Not ranked,WILDCAT C AT SETH CHILDS RD, MANHATTAN, KS 06879810: Flow=7.2cfs,Stage=2.67ft,Floodstage=14ft,2016-10-01 14:15,Not ranked,WILDCAT C AT SCENIC DRIVE, MANHATTAN, KS 06879805: Stage=7.22ft,2016-10-01 14:00,Not ranked,WILDCAT C AT KEATS, KS 06879650: Flow=0.00cfs,Stage=2.13ft,2016-10-01 14:45,Not ranked,KINGS C NR MANHATTAN, KS 06878600: Flow=83cfs,Stage=6.29ft,Floodstage=21ft,2016-10-01 14:15,Not ranked,LYON C NR JUNCTION CITY, KS 06876440: Flow=451cfs,Stage=4.16ft,Floodstage=26ft,2016-10-01 14:15,Not ranked,SOLOMON R NR MINNEAPOLIS, KS 06876070: Stage=8.74ft,2016-10-01 14:15,Not ranked,SOLOMON R NR SIMPSON, KS 06870300: Flow=13cfs,Stage=20.23ft,2016-10-01 14:15,Not ranked,GYPSUM C NR GYPSUM, KS 06870200: Stage=9.30ft,Floodstage=27ft,2016-10-01 14:45,Not ranked,SMOKY HILL R AT NEW CAMBRIA, KS 06869950: Flow=1.8cfs,Stage=2.69ft,Floodstage=24ft,2016-10-01 14:00,Not ranked,MULBERRY C NR SALINA, KS 06868850: Flow=723cfs,Stage=17.51ft,Floodstage=30ft,2016-10-01 13:45,Not ranked,SALINE R AT LINCOLN, KS 06868100: Stage=1517.39ft,2016-10-01 14:30,Not ranked,WILSON LK NR WILSON, KS 06867500: Flow=14cfs,Stage=9.65ft,2016-10-01 14:30,Not ranked,PARADISE C NR PARADISE, KS 06865000: Stage=1467.26ft,2016-10-01 14:30,Not ranked,KANOPOLIS LK NR KANOPOLIS, KS 06864050: Flow=58cfs,2011-06-08 23:45,Not ranked,SMOKY HILL R NR BUNKER HILL, KS 06863420: Flow=0.61cfs,Stage=1.50ft,2016-10-01 14:15,Not ranked,BIG C NR ELLIS, KS 06863000: Flow=0.14cfs,Stage=1.18ft,2016-10-01 15:00,Not ranked,SMOKY HILL R AT PFEIFER, KS 06862850: Flow=0.00cfs,Stage=1.94ft,Floodstage=11ft,2016-10-01 14:00,Not ranked,SMOKY HILL R BL SCHOENCHEN, KS 06861500: Stage=2119.50ft,2016-10-01 14:15,Not ranked,CEDAR BLUFF RE NR ELLIS, KS 06860900: Flow=0.00cfs,Stage=6.97ft,2016-10-01 14:30,Not ranked,HACKBERRY C NR TREGO CENTER, KS 06860000: Flow=0.00cfs,Stage=3.64ft,Floodstage=9ft,2016-10-01 14:30,Not ranked,SMOKY HILL R AT ELKADER, KS 06857050: Stage=1146.94ft,2016-10-01 14:30,Not ranked,MILFORD LK NR JUNCTION CITY, KS 06855850: Flow=18cfs,Stage=4.23ft,2016-10-01 14:15,Not ranked,BUFFALO C 4 MI E OF JAMESTOWN, KS 06854000: Stage=0.00ft,2016-10-01 14:45,Not ranked,WHITE ROCK C AT LOVEWELL, KS 06853020: Flow=63cfs,Stage=3.89ft,Floodstage=11ft,2016-10-01 14:30,Not ranked,Republican River at Guide Rock, Nebr. 06848500: Flow=0.00cfs,Stage=1.04ft,Floodstage=21ft,2016-10-01 14:30,Not ranked,PRAIRIE DOG C NR WOODRUFF, KS 06846500: Flow=0.00cfs,Stage=2.76ft,Floodstage=16ft,2016-10-01 14:00,Not ranked,BEAVER C AT CEDAR BLUFFS, KS 06845110: Flow=0.04cfs,Stage=4.63ft,Floodstage=17ft,2016-10-01 14:30,Not ranked,SAPPA C NR LYLE, KS 06827500: Flow=0.00cfs,Stage=-0.56ft,Floodstage=9ft,2016-10-01 13:30,Not ranked,South Fork Republican River near Benkelman, Nebr. 06827000: Flow=1.9cfs,Stage=3.01ft,2016-10-01 14:45,Not ranked,SF REPUBLICAN R NR CO-KS ST LINE, KS 06820475: Stage=6.65ft,2016-10-01 14:00,Not ranked,MISSOURI R AT LEAVENWORTH, KS 06818300: Stage=11.75ft,Floodstage=22ft,2016-10-01 15:00,Not ranked,MISSOURI R AT ATCHISON, KS Go to WaterWatch (offsite) for a larger map with additional options
USGS Home Water Resources Biology Geography Geology Geospatial

Accessibility FOIA Privacy Policies and Notices

Take Pride in America logo USA.gov logo U.S. Department of the Interior | U.S. Geological Survey
Page Contact Information: GS-W-KS_info@usgs.gov
Page Last Modified: 2016-08-29 15:08:15 CDT